ECMWFFLT1_850_spd_000.txt.gz
Wind_Speed
7 6 6 5 4 4 4 6 7 7 7 8 9 10 9 9 9 9 9 9 9 8 7 6 5 4 4 3 2 2 3 3 3 4 3 2 3 4 6 7 9 10 9 9 9 7 7 8 8 10 16 16 14 12 10 9 9 10 12 12 12 12 11
8 7 7 6 5 3 3 4 6 6 6 7 8 9 9 9 9 9 9 9 9 9 8 7 7 6 5 4 3 3 3 3 4 3 2 2 2 2 3 2 4 4 3 6 5 4 6 8 8 9 12 15 14 13 12 13 13 13 13 14 15 14 13
11 9 8 7 5 3 2 2 4 5 5 6 6 7 7 7 7 8 7 7 8 8 8 8 9 9 8 8 6 5 3 3 3 3 3 3 4 5 5 4 3 3 4 4 2 3 5 7 8 7 9 12 15 17 17 17 15 15 14 14 17 16 13
13 12 10 8 6 5 4 3 3 5 4 4 4 4 5 5 5 5 5 5 6 7 7 8 9 9 10 10 9 8 6 5 3 1 2 3 4 6 6 7 6 5 6 5 5 7 7 7 9 10 10 10 12 15 16 16 15 15 15 15 17 16 13
14 13 11 9 7 6 6 5 5 5 4 3 2 2 2 2 3 3 3 4 4 5 6 6 7 7 8 9 9 8 7 6 5 4 3 2 1 3 4 5 7 8 9 8 8 9 9 9 10 10 10 10 11 12 12 13 14 15 14 14 15 15 13
15 14 11 9 8 8 7 7 6 5 5 4 3 2 0 0 1 1 2 2 3 3 4 5 6 6 6 7 7 7 7 6 6 6 6 5 5 4 4 4 5 7 8 9 10 10 10 10 8 8 9 10 11 13 12 12 13 13 12 11 12 12 12
16 15 13 10 9 9 8 8 7 6 6 6 5 4 3 2 1 1 1 1 1 2 2 3 4 5 6 6 6 6 6 6 6 7 8 8 7 6 6 6 6 6 7 9 9 10 11 11 10 10 12 13 13 14 13 11 11 10 10 9 9 10 10
16 16 15 12 11 10 9 9 7 7 6 6 7 6 5 4 3 3 3 2 2 1 1 2 3 4 4 5 5 5 6 7 8 8 9 9 8 8 7 6 6 6 6 7 8 9 10 11 11 12 13 13 13 14 12 11 10 9 8 8 8 8 9
18 17 16 15 14 13 11 10 9 8 7 7 8 8 6 5 5 5 4 4 3 3 2 1 2 2 3 3 4 5 6 8 9 10 10 10 9 9 8 7 6 6 6 6 6 7 8 9 10 11 11 10 11 12 12 12 10 7 6 6 7 6 6
19 19 18 17 16 16 14 12 11 11 10 9 10 9 7 7 7 7 6 6 6 5 4 3 2 2 3 3 4 5 6 8 9 10 10 11 11 11 10 9 7 7 7 7 6 7 8 9 9 9 9 8 9 10 11 12 11 9 8 7 7 8 7
18 19 20 19 17 17 15 14 14 13 13 12 11 10 9 9 8 9 9 8 7 7 5 4 4 3 3 4 4 5 6 7 8 9 9 10 11 12 11 11 10 9 10 10 8 8 8 8 8 9 9 8 9 10 11 12 13 12 10 9 8 7 8
19 20 20 21 20 19 18 17 16 15 14 14 14 13 11 10 10 10 10 10 10 8 7 5 4 4 4 5 5 6 6 7 8 8 9 10 11 12 12 13 13 12 13 12 11 10 9 8 7 7 8 9 10 11 12 12 13 12 10 10 10 11 11
21 21 20 21 21 20 20 19 18 16 16 16 16 15 14 12 12 11 12 12 11 11 9 7 5 4 4 5 6 7 7 8 9 9 10 11 12 12 13 15 15 14 15 12 9 10 10 9 9 8 7 8 9 12 13 13 14 14 13 13 14 14 14
25 23 22 22 22 21 21 21 20 18 17 18 18 18 17 15 14 13 13 13 13 13 11 9 7 6 5 5 6 7 7 8 8 9 10 11 12 13 14 14 15 16 16 12 9 8 8 9 10 9 9 8 8 11 12 13 15 16 15 14 13 14 14
30 28 25 24 24 23 23 23 22 21 20 19 20 20 19 18 17 16 15 15 15 15 14 12 10 9 8 7 7 7 7 7 8 9 10 11 12 13 14 13 14 16 16 14 11 8 7 8 7 7 9 10 10 11 12 13 15 16 17 16 15 15 15
30 31 31 30 29 27 26 25 25 25 23 21 21 22 22 21 19 18 18 17 17 16 15 14 12 11 11 9 9 9 9 8 9 10 11 11 12 13 14 14 14 15 15 14 13 10 8 8 7 7 10 11 11 13 14 16 17 17 18 19 18 17 15
23 26 29 31 31 31 31 29 28 27 26 25 24 24 25 24 22 21 21 20 19 18 17 16 14 14 13 11 11 11 11 11 11 12 12 13 13 14 14 14 14 14 14 13 13 11 8 9 9 9 10 11 11 13 15 17 17 17 18 19 20 20 18
23 24 26 28 30 33 34 34 32 29 27 29 29 28 28 28 26 25 25 24 22 20 18 18 17 16 15 13 13 14 14 14 14 13 14 14 15 15 14 14 13 13 13 13 12 11 10 11 12 11 11 11 11 12 14 15 16 17 18 19 20 21 21
21 22 25 28 32 34 36 37 38 34 30 30 32 33 33 32 30 29 28 26 24 22 20 19 19 18 17 15 15 15 16 16 16 15 15 15 15 15 14 13 13 13 13 13 12 12 12 14 14 13 12 12 12 13 15 16 18 19 19 20 20 20 20
13 15 18 21 25 27 30 33 35 35 33 33 34 36 36 36 34 32 30 28 26 24 22 22 21 20 18 17 17 18 18 18 18 18 17 17 16 15 14 14 13 13 13 12 12 12 13 14 14 13 13 13 13 14 15 17 18 19 21 21 21 20 19
9 10 11 13 16 17 20 23 24 26 29 31 34 35 36 37 36 34 33 31 29 27 25 24 23 21 19 19 19 19 19 19 19 19 18 18 17 16 16 15 14 14 14 14 14 14 15 15 14 15 14 14 14 15 16 17 17 18 20 21 21 20 19
10 12 12 12 12 12 14 17 18 20 24 27 31 32 32 36 39 37 35 34 32 30 28 26 24 21 20 20 20 20 19 19 19 19 18 17 17 16 16 15 16 16 16 16 17 17 17 17 17 17 16 15 15 16 17 17 17 18 19 20 20 20 19
12 14 16 16 16 14 12 13 14 17 19 20 23 25 26 34 39 36 34 36 36 33 30 27 24 22 21 21 20 20 20 19 18 18 16 15 15 15 16 16 17 19 19 18 18 18 18 18 19 19 19 18 18 18 18 19 19 19 19 20 21 20 20
15 16 17 18 19 18 14 12 11 13 14 15 20 26 29 33 36 33 34 38 37 35 32 28 24 23 22 21 21 20 20 19 18 17 15 14 13 14 14 15 17 20 21 19 18 20 21 21 21 22 22 22 21 21 22 22 22 22 21 22 22 21 22
18 18 19 19 19 19 15 12 11 11 12 13 19 27 30 30 31 32 36 41 39 35 32 27 24 23 22 21 21 20 18 18 17 15 14 13 12 12 13 16 18 20 21 20 20 21 21 22 23 25 26 25 25 24 24 25 25 25 24 24 24 23 23
20 20 20 20 21 21 17 12 11 12 13 12 14 19 24 26 29 33 38 43 41 35 30 26 24 23 22 20 19 17 15 15 15 13 13 14 14 15 16 16 17 17 18 19 21 21 20 20 22 26 28 28 27 27 27 27 27 27 27 28 28 29 27
21 21 21 21 22 23 21 15 11 11 14 15 14 15 19 24 28 33 38 42 39 33 29 26 24 21 18 17 16 14 13 14 14 13 14 15 17 18 18 17 17 17 17 18 18 19 21 23 25 26 26 26 26 26 27 28 27 27 27 27 30 32 30
23 23 23 22 23 24 24 21 17 12 12 16 17 17 19 23 27 32 37 38 36 32 29 25 20 17 15 14 13 12 13 14 14 14 15 16 17 17 16 17 19 19 19 19 19 22 25 27 29 29 29 29 28 27 27 25 23 23 23 24 27 28 26
25 25 24 23 23 24 23 23 21 16 13 15 18 18 20 23 28 32 34 35 33 28 24 19 15 13 12 11 11 12 13 14 14 13 14 15 16 15 15 17 19 20 20 21 22 26 30 31 31 32 31 30 29 27 26 24 24 26 27 27 29 29 29
26 25 24 22 21 21 22 21 19 17 16 16 17 18 19 23 30 35 35 32 26 20 16 14 12 11 10 9 10 10 10 10 10 11 12 14 14 14 15 18 21 23 24 25 25 28 32 33 33 33 32 30 28 26 25 24 24 26 28 29 31 32 34
25 25 24 22 19 19 20 19 16 15 15 14 15 16 19 25 33 37 34 28 21 15 12 11 10 9 8 8 9 9 8 8 9 11 12 14 14 15 16 19 24 28 29 28 28 31 34 34 33 32 30 28 26 25 24 23 23 24 25 28 30 31 31
24 23 23 21 19 19 19 17 14 13 12 13 13 15 21 30 36 35 29 24 19 15 12 9 8 7 7 7 9 9 8 9 10 12 13 14 15 15 16 19 23 27 28 29 30 34 36 34 32 30 26 23 25 25 23 22 23 24 24 25 25 26 25
23 22 22 21 19 18 17 16 15 14 13 13 13 14 23 33 35 30 24 20 16 13 10 8 7 7 7 8 9 10 11 11 12 13 14 15 16 17 17 19 20 22 26 29 32 34 35 34 35 33 27 23 25 24 22 22 24 25 26 25 25 25 24
23 22 21 20 18 17 17 16 16 16 16 17 16 18 26 33 31 26 21 16 13 11 10 9 8 7 7 9 10 12 14 14 15 15 15 16 17 18 19 20 19 21 26 30 32 35 36 36 36 35 30 28 28 28 28 29 28 26 27 27 25 25 26
25 24 21 18 16 17 18 19 18 19 21 22 23 25 28 29 26 22 18 15 13 12 10 8 6 6 8 9 11 12 13 15 16 17 19 20 19 20 21 21 21 23 28 32 34 35 36 35 33 33 32 31 31 30 30 30 27 25 25 24 23 24 24
26 25 22 19 17 17 19 21 21 22 23 26 28 28 28 26 22 18 17 15 12 9 7 5 4 6 7 9 10 11 12 14 16 18 20 22 22 22 23 22 22 26 30 32 32 33 32 31 30 30 29 28 26 26 27 26 24 24 24 24 25 26 25
22 23 22 19 18 19 21 23 23 24 27 29 28 27 27 25 21 18 16 13 9 6 3 1 2 4 6 7 8 9 11 13 15 17 19 21 23 24 24 22 24 27 30 30 31 30 29 26 25 24 24 23 22 22 23 23 22 23 25 26 26 28 28

ECMWFFLT1_850_spd_003.txt.gz
Wind_Speed
9 9 10 9 9 8 8 8 8 8 8 8 8 8 8 8 8 8 9 8 7 6 5 4 4 4 4 3 4 4 3 2 2 2 2 1 2 4 5 6 8 10 12 12 11 10 10 10 11 11 12 10 10 12 12 11 12 14 13 13 14 13 11
10 10 10 10 9 9 9 9 8 7 7 8 8 8 8 9 9 10 10 10 9 8 6 5 5 5 4 4 4 4 4 3 3 3 3 3 2 2 2 1 2 3 6 7 7 7 8 9 9 9 10 9 8 11 13 13 14 16 16 15 16 16 16
11 11 11 10 9 8 9 9 8 7 7 7 8 8 8 8 8 9 9 10 10 10 9 9 9 8 7 7 6 5 5 4 3 2 2 2 1 2 3 4 3 2 2 3 3 4 4 5 6 7 7 9 11 12 14 15 17 18 18 17 17 18 19
13 13 12 11 10 9 8 8 8 8 7 6 6 7 6 6 7 8 8 8 9 9 10 10 11 10 10 10 9 8 7 6 5 4 1 1 0 1 0 2 2 2 2 2 3 3 4 5 6 6 7 10 12 14 15 15 18 20 19 18 18 18 18
14 14 13 12 11 10 9 8 8 8 7 6 6 5 5 5 5 6 6 7 7 8 8 9 9 9 10 10 10 10 9 8 8 6 5 3 2 2 0 1 3 3 2 3 3 4 5 6 6 7 8 9 10 12 12 13 15 16 16 15 15 15 15
14 14 13 13 12 11 10 9 8 8 8 7 7 5 3 3 4 4 5 5 6 6 6 6 7 8 8 9 9 9 8 8 8 7 6 5 4 4 3 2 3 3 3 4 4 3 5 6 6 7 8 8 9 11 11 11 12 12 11 11 11 10 12
15 14 13 13 13 12 11 11 9 8 8 8 8 7 3 3 3 2 3 4 4 5 4 4 5 6 8 7 6 7 7 7 7 6 6 6 5 4 4 3 3 2 3 4 4 3 4 6 6 7 8 9 10 11 10 9 9 9 10 10 9 9 10
15 14 13 13 13 13 12 13 11 10 9 9 9 8 5 5 4 1 2 2 3 3 3 3 3 4 6 5 5 6 6 6 6 7 7 7 7 6 5 4 3 2 2 3 3 3 3 4 5 7 8 9 10 10 9 8 8 8 8 8 7 9 10
15 15 14 13 13 13 13 14 13 12 11 10 11 10 7 7 6 3 1 1 1 2 2 3 3 3 4 4 4 4 5 6 6 7 8 8 8 8 7 6 5 4 4 4 3 4 4 5 5 6 6 8 9 10 9 9 9 8 7 8 7 6 6
16 15 15 14 14 14 14 14 13 13 13 12 13 13 9 8 7 5 4 3 1 1 1 1 2 2 3 3 2 3 4 5 5 6 7 8 8 8 9 8 7 6 6 6 5 5 5 5 5 4 5 6 7 9 10 10 10 9 9 9 9 7 6
17 16 15 15 14 15 15 15 14 14 14 13 15 14 11 9 8 7 7 6 4 3 2 1 2 2 2 2 1 1 2 3 3 4 4 6 7 8 8 9 9 8 8 8 7 6 6 6 5 4 5 6 7 8 9 11 12 11 10 10 9 10 10
19 17 16 15 14 15 15 15 14 14 14 14 16 15 12 11 10 9 9 8 6 5 5 4 4 4 3 3 2 1 1 1 1 2 2 3 4 6 7 8 9 8 9 10 9 9 10 8 7 6 5 6 7 8 9 11 14 12 10 10 11 12 14
18 16 15 14 14 14 15 14 14 14 15 15 16 16 14 13 12 10 11 10 9 8 8 7 7 6 6 5 3 3 3 2 2 2 3 3 4 5 6 8 8 8 9 9 7 8 10 9 10 10 8 6 7 8 9 10 14 15 13 12 14 14 13
15 14 17 17 16 15 15 16 15 14 15 15 16 17 16 15 14 12 12 13 12 11 10 10 10 9 8 7 5 5 5 3 3 4 4 5 5 6 6 6 7 9 10 9 6 5 6 7 9 10 9 8 7 7 8 10 13 15 14 13 14 14 14
17 17 21 22 20 17 16 17 16 15 16 16 17 18 18 17 17 15 14 15 14 14 13 13 12 11 11 11 9 8 7 5 5 6 6 6 6 7 8 6 7 10 11 10 9 5 4 6 6 6 7 8 9 9 10 10 12 15 16 15 15 15 14
18 20 23 24 24 22 19 18 17 17 18 18 18 20 19 19 19 18 17 17 16 16 15 15 15 14 14 14 12 11 9 7 7 8 7 6 6 8 10 9 8 11 12 12 10 7 6 6 6 6 8 9 10 11 11 11 13 15 17 17 16 15 14
15 17 20 23 24 25 24 23 23 20 20 20 20 20 21 21 21 21 20 19 18 18 18 18 18 17 16 16 15 13 12 9 9 9 8 7 7 9 11 10 9 11 12 11 10 8 6 6 7 8 9 9 10 11 10 11 13 14 16 18 18 17 17
13 14 15 17 20 22 23 25 26 25 24 24 23 22 22 22 22 22 23 22 22 22 21 21 21 19 18 18 16 15 13 12 11 10 9 9 10 10 11 11 10 10 11 11 9 7 7 9 10 10 10 10 10 11 12 12 13 14 16 18 20 20 19
9 12 13 14 16 18 19 20 21 22 23 24 24 23 23 23 23 24 25 25 25 25 24 23 23 21 19 19 18 17 15 14 13 11 11 11 11 12 12 11 11 11 11 11 10 10 10 12 13 12 12 12 12 12 14 14 15 15 17 19 20 20 20
3 4 7 10 12 14 15 17 19 19 19 19 20 22 23 24 26 26 26 26 26 25 24 23 23 22 21 21 20 18 17 16 15 13 13 12 12 13 13 12 12 12 12 12 12 12 13 14 14 13 12 12 12 13 14 15 15 16 17 18 19 19 19
6 5 5 5 6 7 10 14 17 19 19 19 20 22 22 24 26 27 28 27 25 25 25 25 25 23 22 22 21 20 19 18 16 15 15 14 14 14 14 13 13 13 14 14 14 14 15 16 16 15 13 13 14 14 15 15 16 16 17 18 18 18 19
11 12 12 11 11 12 12 13 14 15 17 19 20 22 22 23 24 24 26 27 25 25 27 29 29 27 25 24 22 20 19 18 16 16 15 14 15 15 14 14 15 15 15 16 16 17 17 16 16 16 16 16 16 17 17 17 17 17 17 18 19 18 19
6 8 9 11 13 15 14 13 12 12 14 16 18 20 21 23 24 24 26 28 28 28 29 29 30 30 29 26 22 20 19 18 16 15 14 14 14 15 14 14 16 17 18 19 19 19 18 16 16 17 17 17 17 18 19 20 20 20 19 19 20 19 20
8 8 8 8 9 10 11 11 11 12 13 14 16 17 18 21 23 25 27 29 29 31 32 31 31 32 32 28 24 22 21 18 16 15 14 14 13 14 14 14 14 17 19 21 20 19 19 18 17 18 18 18 18 19 20 22 23 23 23 23 22 21 21
9 9 9 8 8 9 10 10 11 12 12 13 14 14 15 19 20 22 26 28 30 33 33 32 32 33 33 31 28 25 20 17 16 15 14 14 12 11 11 11 12 15 18 18 17 17 19 19 18 18 20 22 24 24 23 23 24 24 25 26 26 25 24
6 7 8 8 8 10 11 11 11 12 12 14 15 14 14 15 16 21 24 26 30 34 33 31 32 34 34 32 30 25 18 15 15 14 13 13 12 11 11 12 13 14 15 16 16 15 14 13 14 17 20 23 25 26 26 26 26 26 26 27 29 29 29
6 8 9 10 10 11 11 12 12 12 11 13 15 14 12 11 13 18 20 23 28 33 35 34 34 34 33 31 28 22 16 13 14 13 12 14 14 14 14 14 13 13 12 13 12 11 11 11 13 16 19 21 23 24 25 26 27 28 28 28 29 29 28
9 11 12 12 12 11 12 13 13 12 11 12 12 12 12 12 12 14 18 24 29 32 34 35 35 34 33 31 25 20 16 17 17 15 13 15 15 15 14 14 14 14 13 13 13 14 15 16 18 20 22 24 26 25 24 23 23 25 26 26 27 27 25
10 12 12 12 12 12 12 13 13 12 12 12 13 13 14 14 13 13 20 27 31 32 32 34 34 33 32 28 23 18 16 16 15 13 12 13 14 13 13 12 12 12 12 12 14 18 20 22 24 25 26 28 28 26 23 22 22 24 26 27 28 28 28
11 12 12 12 12 12 11 12 12 12 12 12 13 13 14 15 15 15 20 26 29 30 31 32 33 31 28 25 21 17 13 10 9 10 10 12 12 12 12 13 12 12 13 13 16 22 25 26 27 27 27 30 29 26 22 21 22 24 25 28 30 30 31
11 12 12 12 12 12 11 12 12 12 12 13 13 13 14 16 16 16 19 22 24 26 28 32 31 27 24 22 19 17 12 7 6 9 10 11 11 11 12 14 15 15 15 16 19 24 27 28 29 29 30 31 30 25 23 23 23 23 24 25 27 29 30
12 12 11 12 12 12 11 12 12 13 13 13 12 12 14 15 15 15 17 17 19 22 26 29 27 23 21 19 18 17 13 9 8 10 11 11 11 10 11 13 15 17 17 18 20 24 27 29 31 32 33 33 31 27 24 24 24 23 23 24 26 27 28
12 12 12 12 13 13 12 12 13 13 13 13 12 12 14 15 15 14 14 16 20 22 24 25 23 20 19 18 16 13 10 9 9 9 9 9 9 10 10 11 15 19 20 21 24 27 29 32 33 35 36 37 37 33 28 27 28 29 29 31 32 32 30
13 14 14 15 15 14 13 13 13 14 13 13 13 12 15 18 16 13 14 18 22 23 22 22 21 18 15 14 11 8 6 7 9 9 9 9 9 10 10 10 16 21 22 24 27 30 32 34 35 37 38 39 40 39 37 37 39 39 35 33 34 33 30
16 18 19 19 18 17 15 13 14 14 14 15 15 14 16 16 14 14 17 21 22 22 20 18 16 14 10 8 7 6 6 8 10 11 11 10 9 11 11 11 16 22 24 27 30 31 33 35 37 39 41 41 41 40 39 38 38 35 30 28 29 29 26
18 20 21 20 19 18 15 13 15 15 15 17 17 15 17 17 15 18 22 23 21 19 16 14 11 8 7 6 6 6 7 9 10 9 10 10 10 12 12 13 16 22 25 27 28 30 32 35 36 37 37 36 34 32 30 30 27 24 22 22 23 24 23
18 18 18 16 16 15 14 16 18 19 19 19 17 16 19 21 20 22 24 23 19 15 12 10 8 5 5 5 5 5 7 7 7 8 9 10 11 12 13 15 17 21 23 25 26 27 27 27 26 26 26 25 24 23 23 22 20 19 19 20 21 23 23

ECMWFFLT1_850_spd_006.txt.gz
Wind_Speed
12 12 10 9 6 5 7 8 9 9 10 9 9 9 8 9 11 13 14 12 10 8 8 9 10 11 11 10 9 7 6 6 5 5 5 4 3 2 2 6 6 6 7 9 10 10 9 9 9 9 10 10 11 10 9 8 8 8 8 9 12 13 12
12 11 10 8 7 7 9 8 7 7 8 8 9 10 10 10 11 13 14 14 12 8 7 8 7 8 9 10 10 10 8 6 6 9 10 8 8 9 7 4 3 2 2 3 5 6 6 6 6 7 9 10 10 10 9 9 10 10 8 8 9 10 10
12 11 11 9 8 9 9 8 6 7 8 8 9 10 10 11 11 12 13 13 12 10 9 9 8 8 8 8 8 9 9 8 6 6 7 6 6 8 7 6 5 4 5 5 3 3 3 4 5 5 6 8 10 11 11 12 13 13 10 8 9 8 8
13 14 13 10 10 10 9 7 6 6 7 8 9 9 10 10 10 11 12 12 12 12 12 12 11 11 11 10 9 8 7 7 6 5 4 4 4 5 6 6 7 6 4 4 2 2 1 2 5 6 7 7 9 10 11 13 15 15 13 10 9 9 7
15 16 14 10 10 10 9 9 7 4 5 6 7 8 9 9 9 9 10 10 11 12 12 12 11 11 11 11 11 9 9 8 6 5 4 3 3 3 4 6 7 7 7 7 7 6 5 5 6 5 6 7 8 9 10 11 11 11 10 7 6 5 6
17 17 13 11 11 10 11 11 8 5 3 4 6 7 7 8 9 8 8 8 8 9 9 9 10 9 9 9 9 9 8 7 6 5 5 4 4 4 3 3 4 4 4 4 5 4 2 2 3 4 4 6 8 9 8 7 7 7 6 5 7 7 5
19 17 14 12 12 11 11 11 9 7 4 2 3 5 6 7 8 8 8 7 7 7 7 7 8 8 7 7 7 7 7 6 5 4 3 3 3 3 3 2 2 1 1 1 3 3 2 1 1 3 5 6 7 7 8 7 7 8 6 5 9 10 8
18 18 15 13 13 12 11 11 10 8 6 4 3 2 4 5 7 7 6 7 7 7 6 6 6 7 6 6 6 6 6 5 5 4 4 4 3 4 3 2 1 1 1 2 2 2 3 4 3 4 4 6 8 8 7 6 4 6 7 6 5 6 7
17 17 16 13 12 12 12 11 10 9 8 7 6 2 2 3 4 6 5 6 6 6 6 5 5 6 6 6 6 5 5 5 5 5 5 5 6 6 5 5 5 4 4 4 4 5 4 5 6 6 4 4 8 10 10 8 5 4 5 5 5 4 6
17 16 16 14 12 13 13 11 10 11 9 9 9 6 4 3 2 3 4 5 5 5 5 5 4 4 4 5 6 5 6 6 6 6 6 7 7 7 7 7 6 6 5 4 4 5 5 5 6 6 6 4 5 7 9 11 10 7 4 3 5 8 8
17 15 15 14 13 13 13 12 11 12 11 10 11 10 8 6 4 2 2 3 4 4 4 4 3 3 3 3 4 4 5 5 5 6 6 6 7 7 7 7 6 6 5 3 2 3 3 3 3 4 5 6 6 6 7 10 12 10 7 6 6 9 11
18 16 14 15 14 14 14 13 11 12 12 12 13 13 11 8 6 5 4 3 2 3 3 3 3 3 3 3 3 3 3 3 4 5 5 4 5 5 5 5 5 7 6 5 5 5 5 4 4 4 4 4 5 6 6 9 11 11 10 10 10 11 14
18 17 16 16 15 15 16 15 13 12 13 14 15 15 14 11 9 7 7 6 5 4 4 4 4 5 5 4 4 4 3 2 2 2 3 3 2 2 2 3 4 6 6 7 6 6 7 8 9 9 8 8 7 6 7 8 12 13 12 11 13 13 13
17 18 19 18 17 17 17 17 16 15 14 14 15 16 15 13 12 11 10 9 8 7 7 7 7 7 8 7 6 6 4 3 3 4 3 2 1 1 1 2 2 3 5 6 6 5 5 8 10 11 12 12 10 9 9 9 13 17 15 13 13 14 13
17 17 19 20 20 20 19 18 19 18 17 16 15 16 16 14 13 13 13 13 13 11 10 10 10 10 10 10 9 8 7 6 5 6 6 5 4 3 1 1 3 4 5 6 6 5 3 3 5 5 6 7 6 7 9 11 13 17 18 18 16 15 14
17 16 18 19 19 20 21 20 20 20 20 19 17 16 17 16 14 15 15 15 16 16 14 13 12 12 12 12 12 11 11 9 8 8 9 7 6 6 5 3 4 6 6 6 7 7 5 4 3 3 5 7 8 9 10 12 13 16 19 20 18 17 17
14 16 19 19 17 17 19 20 20 20 20 19 18 16 17 18 17 16 17 18 18 18 17 16 16 15 15 14 15 15 13 12 11 11 10 8 6 8 9 7 6 7 8 8 8 8 6 6 5 6 8 9 8 8 9 11 12 14 16 18 18 18 18
12 14 18 19 19 19 20 19 18 18 17 17 18 17 18 19 19 18 19 20 20 19 19 19 19 19 18 17 17 17 16 15 14 13 12 10 8 10 11 10 8 9 9 9 9 8 6 7 8 10 11 11 10 10 11 13 14 15 16 18 20 20 19
13 15 16 18 20 20 21 21 18 17 18 19 20 20 21 22 21 20 20 20 21 21 20 20 20 21 21 20 20 20 19 17 15 14 13 12 11 12 12 12 11 11 11 10 10 9 9 10 12 13 13 13 12 11 12 14 14 15 16 18 19 20 19
12 12 12 14 15 15 17 19 18 17 19 22 24 24 25 25 23 22 23 23 23 22 22 22 21 22 23 23 22 22 20 19 17 16 15 14 14 14 12 12 12 12 12 11 11 11 12 12 13 14 14 14 14 13 14 14 14 14 15 16 18 18 19
8 6 6 6 7 7 7 8 7 7 10 15 19 20 21 21 21 23 25 26 26 25 25 25 24 24 25 25 24 23 22 21 20 19 18 18 17 16 15 13 13 13 13 12 12 12 13 14 15 15 15 15 15 16 16 16 16 15 15 15 16 17 17
3 3 3 3 4 5 6 6 6 7 8 10 13 16 17 16 17 20 24 27 27 26 28 30 29 28 28 27 26 25 25 24 23 21 21 21 19 18 17 15 14 14 14 13 13 14 15 16 17 16 15 16 16 17 17 17 17 17 18 18 19 19 19
1 0 1 3 4 4 6 8 9 10 10 9 11 13 15 14 16 18 21 24 25 27 29 32 32 31 29 28 27 28 27 26 24 22 23 23 21 19 17 15 14 14 13 13 13 15 18 19 18 17 17 16 16 16 17 17 18 19 20 21 21 21 21
3 2 2 1 1 1 2 3 5 6 7 8 9 10 12 13 15 17 19 20 22 26 28 30 32 32 29 29 30 30 29 26 24 22 22 21 19 18 15 13 13 14 14 14 15 17 19 19 18 18 18 18 18 17 17 18 19 20 21 22 22 22 23
3 3 2 1 1 2 2 3 4 6 7 8 8 9 10 12 14 17 19 20 21 24 26 27 30 32 31 30 31 31 30 27 25 23 21 19 17 16 15 13 13 14 15 16 18 19 19 19 18 19 19 20 20 21 22 22 22 22 23 24 25 25 25
2 3 4 5 5 6 6 5 6 6 6 8 9 11 12 12 12 14 18 21 22 24 26 27 29 31 32 33 34 34 32 30 27 25 22 20 18 16 13 11 12 13 16 18 19 19 19 18 17 17 18 20 22 23 25 25 25 25 25 25 26 26 26
2 2 4 6 7 8 8 6 6 8 9 9 10 13 15 13 11 11 13 19 22 23 24 26 28 29 32 34 35 35 33 30 27 24 21 19 17 13 11 12 14 14 16 17 17 16 15 14 14 15 17 20 22 24 26 26 27 27 26 25 26 27 27
3 5 6 7 8 9 9 7 7 9 10 10 10 12 14 15 14 11 11 16 20 20 22 23 25 27 30 32 34 34 32 28 25 23 20 18 16 15 15 16 16 16 16 16 16 17 16 16 18 20 21 23 24 26 27 27 27 27 26 25 26 27 28
4 5 6 8 9 8 8 7 7 9 11 11 10 11 12 14 16 15 14 16 18 20 22 22 22 25 28 30 31 31 29 27 26 25 23 20 19 18 16 15 15 15 16 16 16 17 18 20 22 24 25 27 29 29 29 28 28 27 26 25 25 26 28
5 5 5 6 7 7 8 8 7 8 10 11 11 11 12 13 14 15 18 20 18 18 21 22 23 24 26 27 28 28 29 29 28 26 22 19 17 15 14 14 14 15 15 15 17 18 19 22 24 26 28 30 30 30 30 30 30 28 26 26 27 28 28
6 6 7 7 7 8 10 10 8 8 10 12 12 13 13 12 13 16 21 22 19 18 18 20 21 22 23 26 28 29 31 30 27 22 17 14 12 12 11 12 13 15 16 18 19 21 22 25 26 27 29 30 31 32 33 33 33 31 29 28 29 30 31
9 10 10 9 10 11 12 11 9 8 10 12 13 14 13 12 15 19 22 21 19 17 17 18 19 20 22 26 28 29 28 26 22 16 11 10 10 10 9 10 13 16 18 20 21 23 24 25 27 28 30 32 34 35 36 36 37 37 37 37 37 37 38
10 10 10 10 12 13 14 13 11 10 11 13 13 13 13 14 17 21 22 20 19 18 18 18 18 19 22 24 26 26 23 20 16 13 10 10 11 10 9 11 15 17 19 21 22 23 25 26 28 30 32 34 36 37 38 39 40 41 42 43 43 43 42
12 11 10 11 13 14 14 15 14 12 12 13 13 14 15 17 19 21 21 21 21 19 18 17 15 16 20 23 24 21 17 16 16 15 14 13 13 12 10 12 17 18 19 22 23 25 27 29 31 33 34 36 38 39 40 41 41 41 41 41 41 40 37
14 14 14 14 15 15 16 16 15 13 13 14 16 18 19 19 20 21 21 23 23 19 15 14 13 16 20 22 19 16 14 15 16 17 16 15 15 15 12 13 17 20 21 24 26 28 30 32 34 36 37 37 37 37 37 37 36 36 36 35 33 31 29
16 17 17 17 17 17 16 15 14 13 14 17 20 21 21 20 21 22 22 22 20 16 13 13 15 17 18 18 15 13 13 13 14 15 15 15 16 16 14 15 19 22 24 25 27 29 31 32 33 33 32 31 30 29 28 28 28 28 28 26 25 25 24
18 19 19 18 18 17 16 14 12 13 16 19 21 21 21 19 20 22 21 20 18 15 14 16 17 16 14 13 12 12 11 10 10 11 12 12 13 14 15 17 20 22 22 24 25 27 27 27 25 23 23 22 21 20 20 21 22 21 21 21 22 23 23

ECMWFFLT1_850_spd_009.txt.gz
Wind_Speed
14 15 14 13 13 14 14 14 14 13 12 11 11 12 13 15 14 12 12 12 13 12 12 10 7 7 8 8 8 7 5 4 6 7 7 7 7 7 8 9 9 8 8 7 7 7 7 6 6 4 4 5 5 5 6 7 8 10 11 10 8 7 7
13 14 13 12 13 14 14 14 14 14 13 12 12 11 12 14 14 13 11 12 13 15 14 11 9 9 8 8 7 6 5 4 5 6 6 7 6 6 6 6 6 5 4 3 3 2 2 2 2 2 3 4 4 4 5 6 6 8 9 10 11 8 5
13 14 14 13 14 14 14 15 14 14 13 12 12 12 12 14 14 13 11 9 10 12 13 11 11 12 11 9 8 6 6 5 6 6 6 8 8 7 8 9 9 7 6 5 5 3 2 2 1 1 1 2 4 5 4 4 6 8 8 8 9 9 7
14 15 15 14 14 13 14 15 14 15 14 13 13 13 13 13 12 11 9 9 10 11 12 11 11 11 11 11 10 8 8 6 5 5 5 6 7 7 7 8 8 8 7 6 6 5 4 2 2 3 5 6 7 8 6 6 7 6 5 5 5 6 6
13 15 14 14 13 12 14 15 15 15 14 14 14 13 13 12 11 10 9 9 11 11 11 12 11 10 10 9 7 6 7 6 6 5 5 5 6 6 6 6 6 6 6 6 5 5 5 5 5 6 7 7 8 7 6 5 1 3 6 9 8 5 3
13 14 13 13 12 11 12 15 15 14 14 14 13 13 13 12 11 10 10 9 8 9 9 10 10 10 10 9 9 8 8 7 6 6 5 4 4 4 3 3 3 4 5 6 7 7 7 7 7 6 6 6 7 6 4 1 4 6 7 11 11 6 1
14 14 13 12 11 10 11 12 13 13 13 13 13 13 12 12 12 11 10 9 8 7 7 7 7 8 8 7 7 7 6 6 5 5 4 3 3 2 2 1 1 1 1 2 3 3 4 5 6 6 6 6 7 7 5 3 3 3 4 8 7 5 3
14 14 12 11 11 11 11 11 11 12 12 12 12 12 11 11 11 11 10 9 8 8 6 5 6 7 7 6 5 5 5 5 4 4 4 3 3 3 3 2 2 2 2 2 1 1 2 3 4 5 7 7 7 7 6 5 4 4 2 3 2 2 5
15 14 13 12 11 11 11 9 9 8 8 10 10 10 11 11 10 10 10 9 8 8 7 6 5 6 6 5 4 4 4 4 4 4 5 5 5 5 5 4 4 4 3 3 2 1 1 1 2 2 4 5 6 7 7 5 2 3 4 3 3 1 2
17 16 14 14 13 12 10 7 7 6 4 5 7 7 9 9 9 9 9 9 9 8 7 6 6 5 5 4 4 4 4 5 5 5 6 5 6 6 5 5 5 5 4 3 2 2 2 2 2 2 2 3 5 6 7 8 6 2 3 5 6 5 3
19 17 15 14 13 13 12 8 7 6 4 3 3 3 5 6 7 7 7 7 7 7 8 7 6 6 4 4 4 3 4 4 5 5 6 5 6 5 5 5 5 5 5 4 2 2 2 2 2 3 4 4 5 6 7 9 8 5 4 4 6 7 8
19 17 15 14 13 13 14 12 9 7 6 5 4 2 2 2 3 3 4 5 5 5 6 6 6 6 5 4 3 3 3 3 3 4 4 4 5 4 4 4 4 5 5 4 2 2 2 2 3 5 6 5 5 5 6 8 9 8 7 7 6 6 9
17 17 16 16 15 14 14 14 11 9 8 8 7 5 3 2 1 1 2 2 2 3 3 4 4 4 5 5 4 3 3 2 2 2 2 2 2 2 2 2 3 4 4 4 4 4 3 3 3 4 5 5 5 6 6 8 11 11 10 10 10 8 8
16 17 17 17 16 15 14 14 12 9 8 8 7 7 6 5 4 3 3 2 2 2 3 3 3 4 4 4 4 4 4 4 3 3 3 3 2 3 3 3 2 2 2 3 4 5 5 5 4 4 4 5 5 6 8 10 13 15 13 11 12 11 9
18 18 17 17 19 19 17 16 15 12 12 10 8 8 8 8 7 7 6 5 5 4 5 5 6 7 7 7 7 6 6 6 5 4 4 4 4 4 5 5 3 1 1 1 2 3 4 4 4 5 5 6 6 7 8 11 14 17 16 14 13 13 13
21 20 17 17 20 23 21 19 17 16 15 14 11 9 8 9 9 10 10 9 9 8 8 8 8 9 9 9 9 9 9 8 8 8 7 6 6 5 6 6 6 4 3 2 2 3 4 3 3 5 6 7 8 9 10 12 14 16 18 18 16 16 17
24 23 21 18 19 21 20 19 18 17 16 15 14 11 9 10 10 11 12 11 12 13 13 12 12 12 12 12 12 12 11 10 10 11 11 10 9 8 8 8 8 8 6 5 4 4 5 5 5 6 7 8 9 11 12 13 14 16 18 20 19 19 19
24 24 24 22 20 19 18 18 18 18 18 17 16 15 14 13 12 12 13 13 15 17 17 16 16 16 15 15 14 14 14 13 13 13 14 13 12 12 11 10 9 10 10 8 7 7 7 7 7 8 9 11 12 13 14 14 16 17 19 21 20 19 19
27 25 24 23 23 22 20 18 17 19 19 19 19 20 19 17 16 16 16 16 16 18 20 20 20 20 20 19 18 17 17 16 15 16 16 15 15 14 14 12 11 12 12 11 10 10 10 9 9 9 11 13 14 15 15 15 16 16 18 19 20 20 19
22 22 21 21 22 21 20 18 18 19 20 21 22 23 22 20 19 18 18 18 18 18 19 22 23 23 23 22 21 21 20 19 18 18 18 17 17 16 15 14 14 14 14 14 13 12 12 12 11 11 13 14 15 15 16 16 16 16 17 18 18 19 19
16 17 17 16 16 16 17 18 19 20 20 19 21 23 23 22 22 23 25 24 22 21 21 23 25 25 25 25 24 23 23 22 21 20 20 19 18 18 17 16 16 16 16 14 13 13 13 13 13 13 14 15 16 16 16 16 16 17 17 18 18 19 20
11 13 13 11 11 10 11 12 13 14 14 13 14 16 18 18 18 18 20 20 18 20 23 26 26 26 27 27 27 25 24 24 23 22 22 21 20 20 19 18 18 19 18 15 14 14 14 14 14 15 16 16 16 16 16 16 16 16 16 18 19 20 21
10 10 10 10 9 9 9 10 10 10 11 11 11 12 13 14 14 13 13 14 13 16 22 26 28 28 29 29 29 28 27 25 24 24 24 24 23 22 22 21 21 20 19 16 15 15 15 14 15 16 16 17 17 17 16 15 15 15 17 18 19 20 22
10 10 10 10 9 8 8 8 9 9 9 9 10 10 11 11 12 13 14 15 16 18 21 24 27 29 30 30 30 30 29 27 26 27 27 26 25 24 24 24 22 20 19 17 16 15 15 15 16 16 17 18 18 17 16 16 16 17 19 21 21 22 23
9 9 8 8 7 5 5 5 6 6 7 7 7 7 8 9 10 13 14 15 16 18 20 21 23 26 28 29 30 31 31 30 29 29 30 29 28 27 26 24 22 20 20 19 17 16 16 17 17 17 17 18 19 18 17 18 20 22 23 24 25 25 25
10 10 9 9 7 6 7 6 5 5 6 7 7 7 8 9 9 11 12 14 15 16 17 19 20 21 23 24 25 28 30 31 30 31 31 31 30 29 26 23 21 20 21 20 19 18 18 19 19 19 18 18 19 19 19 21 23 24 25 26 27 27 26
10 10 9 8 7 8 9 10 9 8 8 9 9 9 9 11 11 11 13 15 16 16 16 16 17 19 20 20 22 24 27 29 29 30 31 31 29 26 23 20 20 20 20 19 19 19 19 20 20 20 20 20 20 21 22 24 25 26 27 27 28 28 27
10 8 7 5 5 5 6 8 9 10 11 12 12 12 12 13 13 13 14 14 14 13 13 13 15 17 17 18 19 21 25 27 28 30 31 29 25 21 19 19 19 18 17 17 19 20 21 20 20 21 21 22 23 24 25 26 27 28 29 29 29 29 29
7 5 3 2 2 3 2 2 3 5 7 9 10 11 13 13 13 13 13 13 11 11 12 12 13 14 15 15 15 17 22 26 28 29 29 25 21 20 20 20 19 17 17 19 20 20 20 19 20 21 22 23 24 25 27 28 29 30 30 30 29 29 30
7 6 4 2 1 2 3 2 2 2 4 6 8 9 10 12 14 14 13 13 13 13 13 13 14 14 15 14 13 16 21 24 25 25 24 21 21 21 20 19 18 18 19 19 19 18 18 19 20 22 23 25 26 27 28 29 31 32 32 32 32 32 32
9 7 7 5 5 5 5 4 4 5 5 6 8 9 10 12 14 15 15 16 16 16 15 15 15 15 14 14 14 16 19 21 22 22 22 21 21 20 18 17 17 17 17 17 17 18 19 21 23 24 26 27 28 29 30 31 33 35 35 36 36 37 37
9 9 9 9 10 10 8 7 7 7 6 7 8 10 11 13 15 16 17 18 18 18 17 17 16 16 15 14 14 15 18 19 21 22 23 22 21 19 17 15 14 14 15 16 18 20 23 24 25 26 27 28 29 31 32 34 37 38 39 40 41 41 41
9 11 12 13 12 12 11 11 11 10 10 9 9 11 13 15 16 17 18 19 19 19 18 17 16 16 15 14 14 15 17 19 21 22 23 22 20 19 17 15 13 14 15 16 18 21 23 24 25 26 27 29 31 33 35 37 39 40 41 41 41 39 38
10 10 11 11 12 13 14 15 15 15 15 12 11 14 15 16 18 18 19 20 20 20 19 17 16 16 15 14 14 16 17 18 20 22 22 20 17 17 17 16 15 16 17 17 19 21 22 24 25 27 29 32 34 36 38 39 38 37 36 35 33 33 31
14 14 13 12 13 15 16 18 19 19 19 15 13 16 18 19 20 21 21 21 21 20 19 18 17 16 15 15 14 14 15 17 19 21 21 19 16 16 18 18 18 19 19 20 21 23 24 26 28 30 32 33 34 34 34 33 31 29 28 27 27 28 27
16 16 15 15 15 16 18 20 21 21 20 16 15 18 20 21 23 23 23 22 21 20 18 17 16 16 15 14 13 12 14 17 19 19 19 18 18 19 20 22 22 22 21 22 24 26 27 28 29 30 30 29 28 27 25 24 23 23 23 23 24 25 26
18 18 18 18 18 19 21 21 22 22 19 16 17 20 22 23 23 24 24 22 20 18 16 16 15 15 14 12 12 13 15 17 18 18 18 19 20 20 21 22 22 22 22 23 25 26 26 26 26 25 24 23 23 22 21 21 22 22 23 24 24 25 26